GW3496 Weather Reports


time (UTC)temp
F
wind
direction
speed
knots
gust
knots
rain 1hr
in
rain 24hr
in
rain mn
in
humidity
%
barometer
mb
20260505173032 81 208 11.3 22.6 0.00 0.00 0.00 34 1009.7
20260505171532 81 198 9.6 15.6 0.00 0.00 0.00 35 1009.7
20260505170034 80 234 7.0 13.0 0.00 0.00 0.00 37 1009.8
20260505164530 80 244 13.0 21.7 0.00 0.00 0.00 37 1010.2
20260505163032 79 250 8.7 14.8 0.00 0.00 0.00 40 1010.6
20260505161542 78 241 12.2 20.9 0.00 0.00 0.00 40 1010.8
20260505153033 78 208 4.3 13.9 0.00 0.00 0.00 43 1011.2
20260505151529 76 240 8.7 20.9 0.00 0.00 0.00 44 1011.1
20260505124536 66 213 2.6 16.5 0.00 0.00 0.00 57 1011.2
20260505123035 65 185 6.1 12.2 0.00 0.00 0.00 57 1011.0
20260505121538 64 155 6.1 11.3 0.00 0.00 0.00 59 1011.0
20260505120043 64 220 7.0 12.2 0.00 0.00 0.00 59 1011.2
20260505114538 63 208 4.3 8.7 0.00 0.00 0.00 60 1010.9
20260505113036 63 230 3.5 10.4 0.00 0.00 0.00 61 1010.7
20260505111534 62 236 5.2 7.8 0.00 0.00 0.00 61 1010.5
20260505101542 62 192 0.9 6.1 0.00 0.00 0.00 61 1010.1
20260505100035 62 188 3.5 8.7 0.00 0.00 0.00 60 1010.0
20260505094541 62 215 5.2 11.3 0.00 0.00 0.00 60 1010.1
20260505093040 63 189 5.2 8.7 0.00 0.00 0.00 59 1009.8
20260505091539 63 190 6.1 10.4 0.00 0.00 0.00 58 1009.9
20260505090045 63 196 6.1 13.9 0.00 0.00 0.00 58 1009.7
20260505084550 63 232 7.0 14.8 0.00 0.00 0.00 57 1009.7
20260505083048 63 179 7.0 10.4 0.00 0.00 0.00 56 1009.6
20260505081552 63 193 7.0 14.8 0.00 0.00 0.00 56 1009.5
20260505080048 63 198 6.1 11.3 0.00 0.00 0.00 56 1009.4
20260505074538 63 200 5.2 13.0 0.00 0.00 0.00 55 1009.5
20260505073044 64 201 6.1 13.0 0.00 0.00 0.00 55 1009.5
20260505071545 64 198 5.2 9.6 0.00 0.00 0.00 55 1009.4
20260505070044 64 216 5.2 9.6 0.00 0.00 0.00 55 1009.4
20260505064541 64 232 6.1 10.4 0.00 0.00 0.00 55 1009.1
20260505063040 64 204 5.2 10.4 0.00 0.00 0.00 55 1009.3
20260505061551 65 192 5.2 10.4 0.00 0.00 0.00 54 1009.4
20260505060034 65 229 7.0 11.3 0.00 0.00 0.00 53 1009.3
20260505054530 65 209 7.0 9.6 0.00 0.00 0.00 53 1009.1
20260505053035 65 231 6.1 12.2 0.00 0.00 0.00 53 1009.0
20260505051531 66 188 4.3 9.6 0.00 0.00 0.00 53 1009.1
20260505041533 67 216 6.1 10.4 0.00 0.00 0.00 51 1008.9
20260505040039 68 215 4.3 9.6 0.00 0.00 0.00 50 1008.9
20260505034533 68 234 4.3 10.4 0.00 0.00 0.00 50 1009.1
20260505033039 68 227 4.3 8.7 0.00 0.00 0.00 50 1009.0
20260505031550 69 254 4.3 10.4 0.00 0.00 0.00 49 1009.2
20260505030035 69 190 4.3 10.4 0.00 0.00 0.00 49 1009.3
20260505024545 69 213 4.3 7.8 0.00 0.00 0.00 48 1009.2
20260505023040 69 211 5.2 9.6 0.00 0.00 0.00 48 1009.0
20260505021536 70 192 3.5 7.0 0.00 0.00 0.00 47 1009.1
20260505020041 70 205 3.5 6.1 0.00 0.00 0.00 46 1009.0
20260505014559 71 193 2.6 5.2 0.00 0.00 0.00 45 1008.8
20260505013034 71 205 2.6 6.1 0.00 0.00 0.00 44 1008.7
20260505011540 72 182 2.6 5.2 0.00 0.00 0.00 42 1008.7
20260505010033 73 195 5.2 10.4 0.00 0.00 0.00 41 1008.6
20260505004535 73 217 5.2 7.8 0.00 0.00 0.00 40 1008.5
20260505003035 74 183 6.1 10.4 0.00 0.00 0.00 39 1008.2
20260505001542 74 213 6.1 10.4 0.00 0.00 0.00 38 1008.5
20260505000035 74 209 8.7 14.8 0.00 0.00 0.00 38 1008.5
20260504234541 75 159 7.0 14.8 0.00 0.00 0.00 38 1008.2
20260504233035 75 207 7.0 12.2 0.00 0.00 0.00 37 1008.1
20260504231531 76 175 9.6 15.6 0.00 0.00 0.00 37 1008.0
20260504230035 76 217 8.7 14.8 0.00 0.00 0.00 36 1007.9
20260504224538 77 198 6.1 12.2 0.00 0.00 0.00 36 1008.2
20260504223035 77 245 9.6 14.8 0.00 0.00 0.00 35 1008.1
20260504221535 77 235 12.2 20.0 0.00 0.00 0.00 35 1008.2
20260504220034 77 240 7.0 13.9 0.00 0.00 0.00 35 1008.2
20260504214535 77 237 9.6 13.9 0.00 0.00 0.00 35 1008.3
20260504213033 77 161 11.3 20.0 0.00 0.00 0.00 35 1008.3
20260504211539 77 199 9.6 22.6 0.00 0.00 0.00 34 1008.3
20260504210055 76 169 7.8 14.8 0.00 0.00 0.00 34 1008.2
20260504204551 77 76 6.1 20.9 0.00 0.00 0.00 33 1008.3
20260504203041 77 247 7.0 17.4 0.00 0.00 0.00 33 1008.4
20260504201535 76 213 11.3 16.5 0.00 0.00 0.00 33 1008.6
20260504200042 75 190 9.6 17.4 0.00 0.00 0.00 34 1008.6
20260504194539 75 189 11.3 18.2 0.00 0.00 0.00 35 1008.6
20260504193039 77 217 10.4 16.5 0.00 0.00 0.00 32 1008.9
20260504191535 76 208 7.8 19.1 0.00 0.00 0.00 32 1008.9
20260504190035 76 192 9.6 20.9 0.00 0.00 0.00 32 1008.9
20260504184535 76 227 7.8 17.4 0.00 0.00 0.00 32 1009.4
20260504183040 75 202 11.3 20.0 0.00 0.00 0.00 33 1009.7
20260504181534 75 188 11.3 16.5 0.00 0.00 0.00 32 1010.0
20260504180039 74 228 7.8 19.1 0.00 0.00 0.00 32 1010.2
20260504174534 74 252 12.2 18.2 0.00 0.00 0.00 32 1010.3